Starlink 34407

operational
NORAD ID: 64347 Int'l Des: 2025-126 Owner: SPXS Country: US Constellation: starlink
LEOCIRCULAR

Starlink 34407について

説明を読み込み中...

リアルタイム位置

3D地球を読み込み中...

次回通過

高度履歴

Altitude vs Time

uPlot chart will show altitude changes over time

軌道要素

1 64347U 25126D 26062.17697646 -.00008026 00000-0 -66517-3 0 9998
2 64347 70.0005 50.9817 0003522 271.4507 88.6248 14.98355546 39701
Epoch: Mar 3, 2026 • Age: 31 hours

現在のステータス

高度 592.5 km
速度 7.56 km/s
衛星直下点 -60.49°S, 1.11°E
打ち上げ日 Jun 13, 2025
運用期間 0.7 years
タイプ internet

技術仕様

分類 Payload
質量 575.00 kg
乾燥質量 530.00 kg
総質量 575.00 kg
長さ 0.30 m
直径 4.10 m
スパン 29.00 m
形状 Box + pan
製造者 SPXS
バスタイプ Starlink V2MO
フェーズステータス In Orbit
所有者/国 SPXS/US

大規模コンステレーション

Loading constellations...